TIME,DELAY(SENSOR),PRES,T(CTD),SAL,OXYGEN,RAWTEMP,T(OPTODE),TCPHASE,TURBIDITY,TURBIDITY_GAIN,FLUOR,BETA,CDOM,CHECK
1342930423,8890,1016.1500244140625000,5.8954000473022460,35.0642013549804700,243.5637054443359400,643.9575805664062000,5.8822708129882810,36.2760810852050800,16,3,50,86,70,15382
1342930549,8890,1005.2399902343750000,5.9745998382568360,35.0609016418457000,240.3184967041015600,641.6256713867188000,5.9590530395507810,36.3959999084472660,16,3,50,88,70,15382
1342930675,8890,994.6900024414062000,6.0935997962951660,35.0684013366699200,236.6764984130859400,638.0170288085938000,6.0777587890625000,36.5158309936523440,16,3,50,86,70,15380
1342930813,8890,982.9299926757812000,6.1932997703552250,35.0724983215332000,233.8132019042968800,634.8571777343750000,6.1815800666809080,36.6058502197265600,16,3,50,86,71,15380
1342930927,8892,972.5200195312500000,6.4203000068664550,35.0769996643066400,227.5023040771484400,628.0363159179688000,6.4053401947021480,36.8137702941894500,16,3,50,86,70,15382
1342931063,8892,957.7600097656250000,6.5103001594543460,35.0812988281250000,223.8083038330078000,625.1209716796875000,6.5008258819580080,36.9610710144043000,16,3,50,86,70,15382
1342931162,8891,945.7800292968750000,6.5886001586914060,35.0774002075195300,220.6103973388672000,622.8090209960938000,6.5764899253845215,37.0953788757324200,16,3,50,87,71,15379
1342931290,8891,931.7899780273438000,6.7793998718261720,35.0856018066406250,216.3939056396484400,617.0278930664062000,6.7654418945312500,37.2251586914062500,16,3,50,86,70,15380
1342931402,8890,921.9400024414062000,6.9422001838684080,35.0954017639160160,212.2402954101562500,612.2083740234375000,6.9227051734924320,37.3744392395019500,16,3,50,86,70,15380
1342931542,8891,910.7100219726562000,7.0099000930786130,35.0988006591796900,209.8874969482422000,609.9605712890625000,6.9959697723388670,37.4709510803222660,16,3,50,87,70,15381
1342931677,8890,899.5399780273438000,7.1314001083374020,35.1020011901855500,206.3173980712890600,606.2227172851562000,7.1176948547363280,37.6136703491210940,16,3,50,86,70,15380
1342931803,8891,887.4699707031250000,7.2737998962402340,35.1077003479003900,202.1056976318359400,601.8878173828125000,7.2586879730224610,37.7884101867675800,16,3,50,87,69,15379
1342931931,8892,875.8699951171875000,7.3847999572753910,35.1133003234863300,199.3802947998047000,598.2854003906250000,7.3757109642028810,37.8908882141113300,16,3,50,86,70,15382
1342932059,8891,865.4699707031250000,7.5216999053955080,35.1194000244140600,196.5272979736328000,594.1071166992188000,7.5112900733947750,37.9920997619628900,16,3,50,86,70,15382
1342932230,8892,851.6699829101562000,7.7975997924804690,35.1333999633789060,191.0930938720703000,585.4000244140625000,7.7932820320129395,38.1803703308105500,16,3,50,87,70,15380
1342932346,8890,841.1599731445312000,7.9342999458312990,35.1394996643066400,188.3988952636718800,581.3358764648438000,7.9246621131896970,38.2826118469238300,16,3,50,86,70,15378
1342932474,8891,829.8800048828125000,8.1775999069213870,35.1511001586914060,184.3395996093750000,573.9583129882812000,8.1627616882324220,38.4179115295410160,16,3,50,89,70,15375
1342932590,8891,819.4199829101562000,8.3203001022338870,35.1571998596191400,181.2521057128906200,569.1884765625000000,8.3164367675781250,38.5415802001953100,15,3,50,90,69,15376
1342932706,8890,808.3499755859375000,8.5274000167846680,35.1722984313964840,177.8829040527343800,562.9398803710938000,8.5174474716186520,38.6618690490722660,16,3,51,86,70,15378
1342932822,8891,796.6099853515625000,8.7797002792358400,35.1832008361816400,173.0802001953125000,554.9362792968750000,8.7744140625000000,38.8586807250976560,16,3,51,88,70,15375
1342932924,8891,786.1099853515625000,9.0446996688842770,35.2014007568359400,167.4891052246093800,546.8051757812500000,9.0349159240722660,39.1202392578125000,16,3,50,88,69,15374
1342933051,8890,774.1300048828125000,9.3136997222900390,35.2266998291015600,164.6909027099609400,538.5153808593750000,9.2999305725097660,39.1833000183105500,16,3,50,88,70,15374
1342933179,8892,763.8599853515625000,9.5286998748779300,35.2454986572265600,162.6788940429687500,531.7951049804688000,9.5143594741821290,39.2179107666015600,16,3,50,86,68,15375
1342933319,8891,752.7600097656250000,9.7874002456665040,35.2691993713378900,160.4535064697265600,523.2332763671875000,9.7870235443115230,39.2407188415527340,16,3,50,86,70,15374
1342933463,8891,740.5399780273438000,10.1695003509521480,35.3096008300781250,159.7395019531250000,510.8594970703125000,10.1800899505615230,39.0853996276855500,16,3,50,86,70,15374
1342933591,8890,728.7800292968750000,10.4449996948242190,35.3398017883300800,159.4165039062500000,502.4649963378906000,10.4461002349853520,38.9681892395019500,16,3,50,86,68,15374
1342933707,8891,718.7999877929688000,10.6694002151489260,35.3641014099121100,158.9174041748047000,495.1760864257812500,10.6766595840454100,38.8836708068847660,16,3,50,86,68,15374
1342933847,8890,707.4299926757812000,11.0558996200561520,35.4123992919921900,160.3688049316406200,483.1814880371094000,11.0552701950073240,38.5719795227050800,15,3,50,86,68,15375
1342933987,8891,696.1500244140625000,11.3039999008178710,35.4436988830566400,161.1237030029297000,475.3169860839844000,11.3029899597167970,38.3837890625000000,15,3,50,86,68,15374
1342934115,8891,685.5700073242188000,11.5457000732421880,35.4754981994628900,163.1340026855468800,466.8682861328125000,11.5686597824096680,38.0917091369628900,16,3,50,86,68,15372
1342934243,8890,674.7600097656250000,11.8152999877929690,35.5121002197265600,165.9608001708984400,459.3183898925781000,11.8056802749633790,37.7552604675293000,16,3,50,84,66,15372
1342934383,8890,663.1500244140625000,12.0668001174926760,35.5489997863769500,170.3119049072265600,450.8233032226562500,12.0719699859619140,37.2983818054199200,42,3,50,86,68,15373
1342934523,8891,652.2299804687500000,12.3374004364013670,35.5876007080078100,172.0438995361328000,442.3179931640625000,12.3381595611572270,37.0348205566406250,16,3,50,86,66,15374
1342934656,8892,640.2700195312500000,12.5956001281738280,35.6259002685546900,172.3798980712890600,433.2257995605469000,12.6222600936889650,36.8649291992187500,16,3,50,86,68,15376
1342934772,8891,628.5599975585938000,12.8495998382568360,35.6599998474121100,176.0072937011718800,426.0220031738281000,12.8470401763916020,36.4930992126464840,16,3,50,84,67,15378
1342934876,8891,618.3200073242188000,13.0529003143310550,35.6902999877929700,178.4723052978515600,419.1451110839844000,13.0613698959350590,36.2133293151855500,16,3,50,84,66,15378
1342934991,8891,606.7199707031250000,13.4041004180908200,35.7442016601562500,182.8164062500000000,407.5592041015625000,13.4219303131103520,35.7356300354003900,16,3,50,84,66,15376
1342935093,8892,596.3599853515625000,13.6057996749877930,35.7765007019043000,186.7359924316406200,400.6093139648437500,13.6379098892211910,35.3678283691406250,16,3,50,82,66,15376
1342935220,8892,584.5599975585938000,13.9288997650146480,35.8258018493652340,190.1302947998047000,391.2898864746094000,13.9271697998046880,35.0040702819824200,16,3,50,84,66,15376
1342935360,8892,573.1199951171875000,14.0792999267578120,35.8512001037597660,191.8370971679687500,386.2585144042969000,14.0831899642944340,34.8179817199707000,16,3,50,84,66,15376
1342935488,8891,562.5399780273438000,14.2762002944946290,35.8806991577148440,192.8424072265625000,379.7972106933594000,14.2833900451660160,34.6561317443847660,16,3,50,84,65,15376
1342935628,8891,550.9099731445312000,14.4358997344970700,35.9062995910644500,194.0861968994140600,374.4346923828125000,14.4494199752807620,34.4963989257812500,16,3,50,84,64,15374
1342935756,8892,541.0800170898438000,14.5811004638671880,35.9314002990722660,195.1526031494140600,369.8215942382812500,14.5921497344970700,34.3601799011230500,16,3,50,85,64,15373
1342935898,8891,529.0800170898438000,14.7545003890991210,35.9598007202148440,195.2496948242187500,363.8662109375000000,14.7763099670410160,34.2638511657714840,16,3,50,85,64,15372
1342936014,8891,518.5100097656250000,14.9979000091552730,36.0021018981933600,196.9389038085937500,356.2090148925781000,15.0129003524780270,34.0453491210937500,16,3,48,85,64,15373
1342936142,8892,507.3699951171875000,15.2258996963500980,36.0407981872558600,198.2111053466797000,349.0687866210937500,15.2333402633667000,33.8607597351074200,16,3,50,84,64,15373
1342936270,8890,496.8200073242187500,15.3829002380371100,36.0705986022949200,199.9232940673828000,343.5667114257812500,15.4030895233154300,33.6761207580566400,15,3,50,84,64,15372
1342936410,8892,485.4100036621094000,15.5419998168945310,36.0971984863281250,200.3663940429687500,338.5331115722656000,15.5583095550537110,33.5750999450683600,16,3,50,85,64,15375
1342936538,8892,474.9100036621094000,15.8516998291015620,36.1542015075683600,201.6168975830078000,328.6442871093750000,15.8630304336547850,33.3556404113769500,16,3,50,85,63,15372
1342936678,8891,463.0199890136719000,16.0575008392334000,36.1921997070312500,204.1089935302734400,322.0209045410156000,16.0669898986816400,33.1127090454101560,16,3,50,86,64,15372
1342936806,8892,451.8999938964844000,16.2649993896484380,36.2268981933593750,202.2113037109375000,314.9887084960937500,16.2834091186523440,33.1210708618164060,16,3,50,87,63,15367
1342936922,8891,441.7399902343750000,16.5272998809814450,36.2802009582519500,207.9046936035156200,306.9576110839844000,16.5304393768310550,32.6773605346679700,15,3,50,86,62,15369
1342937050,8891,430.3299865722656000,16.6653003692626950,36.3078994750976560,211.1535034179687500,302.0848083496094000,16.6802597045898440,32.4255599975585940,16,3,50,86,64,15370
1342937178,8890,419.1199951171875000,16.8404998779296880,36.3413009643554700,213.1670074462890600,296.6604003906250000,16.8469791412353500,32.2371597290039060,16,3,49,86,62,15364
1342937306,8890,408.3599853515625000,16.9489002227783200,36.3568992614746100,211.9228973388672000,293.4760131835937500,16.9448204040527340,32.2600593566894500,16,3,50,87,62,15366
